�������l�o���
Date,Time,MP-1(��Sv/h),MP-2(��Sv/h),MP-3(��Sv/h),MP-4(��Sv/h),MP-5(��Sv/h),MP-6(��Sv/h),MP-7(��Sv/h),MP-8(��Sv/h),����,����(m/s),���J
2019/01/30,00:00,0.771,1.142,0.803,1.473,1.047,0.442,0.791,0.748,���쐼,1.2,��
2019/01/30,00:10,0.771,1.142,0.802,1.473,1.047,0.443,0.789,0.748,-,CALM,��
2019/01/30,00:20,0.771,1.143,0.800,1.473,1.048,0.441,0.790,0.749,���k��,1.1,��
2019/01/30,00:30,0.771,1.144,0.802,1.472,1.045,0.444,0.788,0.750,���쐼,1.7,��
2019/01/30,00:40,0.771,1.133,0.803,1.473,1.046,0.441,0.789,0.750,�쐼,0.9,��
2019/01/30,00:50,0.769,1.137,0.803,1.475,1.044,0.441,0.789,0.749,���쐼,0.9,��
2019/01/30,01:00,0.769,1.137,0.802,1.473,1.048,0.441,0.789,0.751,���쐼,1.2,��
2019/01/30,01:10,0.768,1.138,0.804,1.474,1.049,0.441,0.788,0.750,���쐼,0.9,��
2019/01/30,01:20,0.772,1.138,0.801,1.473,1.044,0.442,0.791,0.748,���쐼,0.6,��
2019/01/30,01:30,0.771,1.138,0.803,1.475,1.047,0.443,0.792,0.750,�쐼,1.5,��
2019/01/30,01:40,0.769,1.137,0.802,1.473,1.044,0.442,0.790,0.748,���쐼,2.0,��
2019/01/30,01:50,0.770,1.137,0.804,1.472,1.047,0.441,0.790,0.750,���쐼,1.1,��
2019/01/30,02:00,0.772,1.138,0.801,1.474,1.047,0.441,0.790,0.749,��,0.9,��
2019/01/30,02:10,0.771,1.139,0.801,1.473,1.046,0.442,0.791,0.751,���k��,1.5,��
2019/01/30,02:20,0.771,1.135,0.802,1.472,1.046,0.441,0.789,0.749,�쐼,0.9,��
2019/01/30,02:30,0.770,1.137,0.801,1.474,1.044,0.442,0.790,0.750,���쐼,1.9,��
2019/01/30,02:40,0.770,1.140,0.803,1.473,1.045,0.441,0.789,0.750,���쐼,2.0,��
2019/01/30,02:50,0.771,1.138,0.801,1.474,1.046,0.441,0.789,0.749,���쐼,2.3,��
2019/01/30,03:00,0.769,1.136,0.803,1.473,1.044,0.441,0.790,0.750,���쐼,3.1,��
2019/01/30,03:10,0.770,1.136,0.802,1.475,1.045,0.441,0.790,0.749,���쐼,3.0,��
2019/01/30,03:20,0.769,1.138,0.801,1.472,1.045,0.442,0.789,0.750,��,3.3,��
2019/01/30,03:30,0.769,1.139,0.802,1.472,1.045,0.441,0.788,0.748,���쐼,2.3,��
2019/01/30,03:40,0.771,1.136,0.802,1.473,1.044,0.442,0.787,0.750,��,2.0,��
2019/01/30,03:50,0.770,1.138,0.802,1.474,1.046,0.442,0.790,0.750,�k��,1.4,��
2019/01/30,04:00,0.770,1.135,0.801,1.474,1.047,0.442,0.789,0.750,���쐼,0.6,��
2019/01/30,04:10,0.768,1.136,0.801,1.472,1.044,0.441,0.788,0.750,���쐼,1.5,��
2019/01/30,04:20,0.770,1.138,0.800,1.473,1.045,0.441,0.789,0.749,���k��,2.3,��
2019/01/30,04:30,0.769,1.133,0.802,1.473,1.047,0.443,0.789,0.748,��,3.3,��
2019/01/30,04:40,0.770,1.136,0.802,1.470,1.044,0.442,0.791,0.749,��,5.0,��
2019/01/30,04:50,0.769,1.136,0.803,1.473,1.046,0.441,0.789,0.749,��,5.0,��
2019/01/30,05:00,0.770,1.140,0.802,1.473,1.044,0.440,0.789,0.749,��,6.6,��
2019/01/30,05:10,0.768,1.134,0.805,1.474,1.044,0.440,0.789,0.750,��,5.8,��
2019/01/30,05:20,0.769,1.138,0.804,1.476,1.046,0.441,0.788,0.751,��,5.0,��
2019/01/30,05:30,0.771,1.136,0.801,1.475,1.042,0.442,0.790,0.748,��,4.6,��
2019/01/30,05:40,0.770,1.135,0.801,1.473,1.045,0.441,0.790,0.750,��,4.2,��
2019/01/30,05:50,0.769,1.135,0.804,1.474,1.046,0.442,0.791,0.749,��,4.2,��
2019/01/30,06:00,0.770,1.137,0.804,1.476,1.042,0.440,0.790,0.748,��,4.0,��
2019/01/30,06:10,0.769,1.138,0.802,1.472,1.046,0.441,0.791,0.750,��,5.8,��
2019/01/30,06:20,0.768,1.138,0.800,1.473,1.044,0.442,0.788,0.749,��,6.7,��
2019/01/30,06:30,0.769,1.137,0.802,1.473,1.043,0.441,0.791,0.747,��,5.5,��
2019/01/30,06:40,0.770,1.135,0.801,1.472,1.044,0.441,0.788,0.748,���k��,4.8,��
2019/01/30,06:50,0.769,1.136,0.803,1.476,1.045,0.441,0.789,0.748,���k��,4.0,��
2019/01/30,07:00,0.771,1.136,0.801,1.472,1.043,0.440,0.790,0.749,���k��,3.6,��
2019/01/30,07:10,0.769,1.136,0.803,1.475,1.045,0.441,0.789,0.749,���k��,3.6,��
2019/01/30,07:20,0.771,1.137,0.801,1.471,1.045,0.440,0.789,0.750,��,3.7,��
2019/01/30,07:30,0.770,1.137,0.803,1.471,1.043,0.441,0.791,0.748,��,5.1,��
2019/01/30,07:40,0.769,1.136,0.801,1.473,1.044,0.440,0.790,0.749,���k��,5.3,��
2019/01/30,07:50,0.771,1.135,0.803,1.472,1.046,0.441,0.791,0.747,��,5.3,��
2019/01/30,08:00,0.771,1.136,0.802,1.473,1.046,0.441,0.789,0.749,��,4.7,��
2019/01/30,08:10,0.769,1.139,0.802,1.470,1.045,0.442,0.793,0.749,��,5.7,��
2019/01/30,08:20,0.771,1.135,0.801,1.469,1.044,0.441,0.792,0.749,��,6.2,��
2019/01/30,08:30,0.771,1.131,0.800,1.470,1.045,0.441,0.792,0.750,��,6.5,��
2019/01/30,08:40,0.770,1.134,0.802,1.473,1.046,0.442,0.792,0.749,��,6.4,��
2019/01/30,08:50,0.771,1.133,0.802,1.472,1.043,0.442,0.791,0.749,��,5.6,��
2019/01/30,09:00,0.773,1.135,0.803,1.474,1.046,0.441,0.788,0.750,��,5.1,��
2019/01/30,09:10,0.773,1.135,0.802,1.473,1.046,0.442,0.790,0.750,��,5.4,��
2019/01/30,09:20,0.773,1.132,0.801,1.473,1.046,0.441,0.791,0.751,��,5.2,��
2019/01/30,09:30,0.772,1.135,0.800,1.473,1.047,0.442,0.790,0.751,��,5.5,��
2019/01/30,09:40,0.772,1.134,0.803,1.475,1.046,0.442,0.787,0.749,���k��,5.1,��
2019/01/30,09:50,0.773,1.136,0.803,1.475,1.045,0.441,0.790,0.749,���k��,5.3,��
2019/01/30,10:00,0.771,1.133,0.804,1.475,1.048,0.443,0.788,0.751,���k��,6.0,��
2019/01/30,10:10,0.774,1.135,0.802,1.473,1.049,0.442,0.790,0.749,��,6.5,��
2019/01/30,10:20,0.773,1.133,0.803,1.474,1.048,0.443,0.789,0.751,���k��,5.7,��
2019/01/30,10:30,0.774,1.132,0.804,1.472,1.048,0.444,0.787,0.750,��,5.2,��
2019/01/30,10:40,0.772,1.133,0.804,1.474,1.049,0.443,0.790,0.751,��,5.2,��
2019/01/30,10:50,0.774,1.133,0.804,1.475,1.048,0.444,0.792,0.752,���k��,4.9,��
2019/01/30,11:00,0.773,1.135,0.800,1.476,1.033,0.444,0.788,0.751,�k��,4.5,��
2019/01/30,11:10,0.775,1.136,0.804,1.475,1.039,0.443,0.791,0.751,���k��,4.1,��
2019/01/30,11:20,0.774,1.134,0.804,1.475,1.029,0.445,0.791,0.752,��,3.4,��
2019/01/30,11:30,0.774,1.134,0.804,1.479,1.032,0.444,0.791,0.752,���k��,3.4,��
2019/01/30,11:40,0.774,1.136,0.807,1.475,1.031,0.444,0.791,0.752,��,4.6,��
2019/01/30,11:50,0.775,1.137,0.805,1.478,1.038,0.444,0.791,0.752,��,4.3,��
2019/01/30,12:00,0.776,1.139,0.802,1.478,1.035,0.445,0.791,0.751,���k��,4.6,��
2019/01/30,12:10,0.778,1.139,0.804,1.477,1.033,0.445,0.790,0.752,���k��,5.3,��
2019/01/30,12:20,0.777,1.138,0.806,1.480,1.035,0.445,0.790,0.751,���k��,4.9,��
2019/01/30,12:30,0.776,1.138,0.806,1.476,1.033,0.444,0.790,0.753,���k��,5.3,��
2019/01/30,12:40,0.777,1.136,0.807,1.479,1.032,0.445,0.791,0.753,�k��,5.6,��
2019/01/30,12:50,0.778,1.134,0.806,1.480,1.050,0.445,0.791,0.753,��,4.5,��
2019/01/30,13:00,0.779,1.133,0.805,1.480,1.053,0.444,0.791,0.752,���쐼,4.8,��
2019/01/30,13:10,0.778,1.135,0.806,1.481,1.052,0.447,0.790,0.752,���쐼,3.8,��
2019/01/30,13:20,0.776,1.133,0.806,1.481,1.053,0.445,0.793,0.753,��,3.9,��
2019/01/30,13:30,0.776,1.135,0.807,1.479,1.054,0.445,0.790,0.753,��,3.7,��
2019/01/30,13:40,0.775,1.134,0.805,1.481,1.058,0.447,0.790,0.752,��쓌,2.8,��
2019/01/30,13:50,0.776,1.135,0.806,1.481,1.056,0.446,0.791,0.752,��쓌,4.7,��
2019/01/30,14:00,0.777,1.132,0.808,1.481,1.054,0.444,0.791,0.749,��쓌,4.3,��
2019/01/30,14:10,0.779,1.136,0.807,1.478,1.055,0.445,0.791,0.751,��쓌,3.8,��
2019/01/30,14:20,0.776,1.135,0.806,1.481,1.058,0.446,0.792,0.750,��쓌,4.3,��
2019/01/30,14:30,0.778,1.139,0.806,1.482,1.055,0.445,0.792,0.750,��쓌,4.9,��
2019/01/30,14:40,0.777,1.138,0.806,1.479,1.056,0.445,0.792,0.752,��쓌,5.0,��
2019/01/30,14:50,0.777,1.138,0.808,1.478,1.055,0.446,0.791,0.751,��쓌,5.0,��
2019/01/30,15:00,0.777,1.140,0.805,1.479,1.056,0.445,0.792,0.751,��쓌,5.8,��
2019/01/30,15:10,0.778,1.141,0.807,1.481,1.058,0.446,0.794,0.752,��쓌,5.2,��
2019/01/30,15:20,0.778,1.141,0.807,1.480,1.057,0.445,0.792,0.751,��쓌,4.1,��
2019/01/30,15:30,0.779,1.146,0.805,1.481,1.059,0.447,0.792,0.753,��쓌,4.4,��
2019/01/30,15:40,0.777,1.143,0.807,1.481,1.058,0.448,0.792,0.754,��쓌,5.2,��
2019/01/30,15:50,0.780,1.145,0.807,1.481,1.059,0.446,0.792,0.752,��쓌,4.8,��
2019/01/30,16:00,0.777,1.146,0.807,1.479,1.059,0.446,0.792,0.752,��쓌,4.0,��
2019/01/30,16:10,0.778,1.146,0.806,1.480,1.060,0.447,0.794,0.751,��쓌,5.0,��
2019/01/30,16:20,0.777,1.144,0.806,1.482,1.059,0.446,0.792,0.752,��,5.1,��
2019/01/30,16:30,0.776,1.149,0.807,1.481,1.059,0.446,0.792,0.753,��쓌,4.3,��
2019/01/30,16:40,0.778,1.147,0.807,1.479,1.060,0.446,0.793,0.751,��쓌,4.7,��
2019/01/30,16:50,0.778,1.149,0.807,1.481,1.059,0.445,0.792,0.751,��쓌,3.7,��
2019/01/30,17:00,0.778,1.149,0.806,1.482,1.059,0.447,0.795,0.750,��쓌,4.0,��
2019/01/30,17:10,0.777,1.151,0.807,1.478,1.060,0.446,0.794,0.751,��쓌,3.7,��
2019/01/30,17:20,0.777,1.149,0.805,1.478,1.059,0.447,0.795,0.751,��쓌,4.4,��
2019/01/30,17:30,0.776,1.150,0.804,1.480,1.059,0.446,0.792,0.751,��쐼,5.3,��
2019/01/30,17:40,0.776,1.148,0.806,1.478,1.059,0.447,0.793,0.750,��쐼,5.9,��
2019/01/30,17:50,0.778,1.149,0.808,1.480,1.060,0.448,0.793,0.752,��쐼,5.2,��
2019/01/30,18:00,0.778,1.151,0.805,1.478,1.059,0.447,0.793,0.751,�쐼,3.4,��
2019/01/30,18:10,0.778,1.152,0.805,1.478,1.056,0.446,0.794,0.751,�쐼,3.4,��
2019/01/30,18:20,0.778,1.153,0.804,1.478,1.058,0.447,0.794,0.750,�쐼,3.8,��
2019/01/30,18:30,0.776,1.154,0.804,1.478,1.058,0.448,0.791,0.751,�쐼,4.1,��
2019/01/30,18:40,0.775,1.151,0.803,1.479,1.059,0.446,0.791,0.751,�쐼,3.9,��
2019/01/30,18:50,0.775,1.152,0.803,1.481,1.059,0.445,0.792,0.752,���쐼,4.5,��
2019/01/30,19:00,0.777,1.153,0.805,1.478,1.058,0.446,0.791,0.750,���쐼,4.8,��
2019/01/30,19:10,0.776,1.152,0.806,1.478,1.060,0.447,0.792,0.750,���쐼,5.1,��
2019/01/30,19:20,0.776,1.153,0.804,1.480,1.058,0.445,0.791,0.750,�쐼,5.8,��
2019/01/30,19:30,0.776,1.150,0.803,1.481,1.056,0.446,0.792,0.750,�쐼,6.0,��
2019/01/30,19:40,0.777,1.150,0.806,1.480,1.055,0.447,0.793,0.751,�쐼,5.9,��
2019/01/30,19:50,0.777,1.149,0.804,1.481,1.056,0.445,0.792,0.751,���쐼,5.8,��
2019/01/30,20:00,0.777,1.151,0.804,1.481,1.058,0.445,0.792,0.750,�쐼,4.7,��
2019/01/30,20:10,0.775,1.150,0.807,1.479,1.058,0.445,0.792,0.752,�쐼,4.7,��
2019/01/30,20:20,0.775,1.151,0.804,1.480,1.056,0.445,0.792,0.750,���쐼,3.6,��
2019/01/30,20:30,0.776,1.152,0.805,1.481,1.056,0.448,0.791,0.751,���쐼,3.7,��
2019/01/30,20:40,0.776,1.153,0.807,1.479,1.059,0.445,0.794,0.750,�쐼,3.4,��
2019/01/30,20:50,0.776,1.150,0.807,1.481,1.057,0.445,0.792,0.748,��쐼,2.6,��
2019/01/30,21:00,0.775,1.150,0.804,1.480,1.056,0.446,0.792,0.750,��쐼,3.3,��
2019/01/30,21:10,0.776,1.151,0.805,1.479,1.057,0.446,0.791,0.750,��쐼,3.4,��
2019/01/30,21:20,0.778,1.151,0.804,1.479,1.058,0.445,0.790,0.750,��쐼,4.2,��
2019/01/30,21:30,0.777,1.150,0.804,1.479,1.056,0.445,0.792,0.750,��,4.0,��
2019/01/30,21:40,0.776,1.151,0.806,1.480,1.057,0.446,0.791,0.750,��,5.8,��
2019/01/30,21:50,0.775,1.151,0.805,1.483,1.059,0.445,0.791,0.750,��,5.6,��
2019/01/30,22:00,0.775,1.151,0.807,1.480,1.057,0.445,0.792,0.751,��,5.0,��
2019/01/30,22:10,0.776,1.151,0.807,1.482,1.056,0.445,0.793,0.751,��,5.2,��
2019/01/30,22:20,0.777,1.150,0.804,1.479,1.054,0.446,0.792,0.750,��,6.0,��
2019/01/30,22:30,0.776,1.152,0.806,1.479,1.058,0.446,0.791,0.750,��,6.2,��
2019/01/30,22:40,0.775,1.151,0.806,1.479,1.057,0.445,0.794,0.751,��쐼,5.0,��
2019/01/30,22:50,0.775,1.152,0.805,1.481,1.057,0.445,0.791,0.751,��쐼,4.5,��
2019/01/30,23:00,0.776,1.149,0.806,1.480,1.056,0.446,0.793,0.751,��쐼,4.1,��
2019/01/30,23:10,0.777,1.149,0.805,1.480,1.057,0.444,0.792,0.751,�쐼,3.5,��
2019/01/30,23:20,0.776,1.150,0.806,1.481,1.058,0.445,0.792,0.751,�쐼,3.5,��
2019/01/30,23:30,0.776,1.151,0.806,1.480,1.056,0.446,0.792,0.750,�쐼,5.0,��
2019/01/30,23:40,0.775,1.149,0.805,1.480,1.054,0.445,0.793,0.751,�쐼,3.4,��
2019/01/30,23:50,0.776,1.150,0.806,1.481,1.057,0.445,0.792,0.751,�쐼,1.7,��
